This is the latest recevied weather packets stored in our database for station/object KB1QVF. If no packets are shown the sender has not sent any weather packets the latest 10 day(s).
| Time | Temp. | Humidity | Pressure | Rain* | Wind** | Luminosity | Snow |
|---|---|---|---|---|---|---|---|
| 1777721196 | 8.89° C | 83% | 1014 hPa | 0 mm | - | 99 W/m² | - |
| 1777720893 | 8.33° C | 83% | 1014 hPa | 0 mm | - | 107 W/m² | - |
| 1777720591 | 8.33° C | 85% | 1014 hPa | 0 mm | - | 137 W/m² | - |
| 1777720288 | 7.78° C | 85% | 1013.4 hPa | 0 mm | - | 61 W/m² | - |
| 1777719986 | 7.78° C | 84% | 1013.6 hPa | 0 mm | - | 34 W/m² | - |
| 1777719683 | 7.78° C | 85% | 1013.6 hPa | 0 mm | - | 30 W/m² | - |
| 1777719380 | 7.78° C | 85% | 1013.8 hPa | 0 mm | - | 23 W/m² | - |
| 1777719077 | 7.78° C | 85% | 1013.9 hPa | 0 mm | - | 49 W/m² | - |
| 1777718775 | 7.78° C | 85% | 1013.7 hPa | 0 mm | - | 20 W/m² | - |
| 1777718472 | 7.78° C | 85% | 1013.7 hPa | 0 mm | - | 35 W/m² | - |
| 1777718169 | 7.78° C | 85% | 1013.7 hPa | 0 mm | - | 30 W/m² | - |
| 1777717868 | 7.22° C | 84% | 1013.7 hPa | 0 mm | - | 26 W/m² | - |
| 1777717564 | 7.22° C | 84% | 1013.6 hPa | 0 mm | - | 19 W/m² | - |
| 1777717261 | 7.22° C | 84% | 1013.7 hPa | 0 mm | - | 17 W/m² | - |
| 1777716959 | 7.22° C | 84% | 1013.9 hPa | 0 mm | - | 13 W/m² | - |
| 1777716656 | 7.22° C | 84% | 1013.3 hPa | 0 mm | - | 5 W/m² | - |
| 1777716355 | 7.22° C | 84% | 1013.6 hPa | 0 mm | - | 5 W/m² | - |
| 1777716053 | 7.22° C | 84% | 1013.6 hPa | 0 mm | - | 5 W/m² | - |
| 1777715750 | 7.22° C | 84% | 1013.3 hPa | 0 mm | - | 4 W/m² | - |
| 1777715448 | 7.22° C | 84% | 1013.5 hPa | 0 mm | - | 2 W/m² | - |
| 1777715144 | 7.22° C | 84% | 1013.6 hPa | 0 mm | - | 2 W/m² | - |
| 1777714843 | 7.22° C | 83% | 1013.3 hPa | 0 mm | - | 1 W/m² | - |
| 1777714541 | 7.22° C | 84% | 1013.1 hPa | 0 mm | - | 1 W/m² | - |
| 1777714238 | 7.22° C | 83% | 1013.4 hPa | 0 mm | - | 0 W/m² | - |
| 1777713936 | 7.22° C | 83% | 1013.3 hPa | 0 mm | - | 0 W/m² | - |
* Rain latest hour (hover to see other rain measurements)
** Current wind speed in m/s (hover to see current wind gust speed)